This is the latest recevied weather packets stored in our database for station/object KE8ZLU. If no packets are shown the sender has not sent any weather packets the latest 10 day(s).
| Time | Temp. | Humidity | Pressure | Rain* | Wind** | Luminosity | Snow |
|---|---|---|---|---|---|---|---|
| 1778066862 | 5° C | 73% | 1012.3 hPa | 0 mm | - | 46 W/m² | - |
| 1778066560 | 5.56° C | 72% | 1012.3 hPa | 0 mm | - | 49 W/m² | - |
| 1778066257 | 5° C | 74% | 1012 hPa | 0 mm | - | 58 W/m² | - |
| 1778065955 | 4.44° C | 75% | 1011.8 hPa | 0 mm | - | 42 W/m² | - |
| 1778065652 | 4.44° C | 74% | 1011.9 hPa | 0 mm | - | 31 W/m² | - |
| 1778065350 | 4.44° C | 74% | 1011.9 hPa | 0 mm | - | 25 W/m² | - |
| 1778065046 | 3.89° C | 76% | 1012 hPa | 0 mm | - | 17 W/m² | - |
| 1778064743 | 3.89° C | 76% | 1011.9 hPa | 0 mm | - | 12 W/m² | - |
| 1778064441 | 3.89° C | 76% | 1011.7 hPa | 0 mm | - | 10 W/m² | - |
| 1778064138 | 3.89° C | 76% | 1011.6 hPa | 0 mm | - | 8 W/m² | - |
| 1778063835 | 3.89° C | 77% | 1011.6 hPa | 0 mm | - | 6 W/m² | - |
| 1778063532 | 3.89° C | 77% | 1011.5 hPa | 0 mm | - | 4 W/m² | - |
| 1778063230 | 3.89° C | 78% | 1011.5 hPa | 0 mm | - | 2 W/m² | - |
| 1778062928 | 3.89° C | 77% | 1011.4 hPa | 0 mm | - | 1 W/m² | - |
| 1778062624 | 3.89° C | 77% | 1011.4 hPa | 0 mm | - | 1 W/m² | - |
| 1778062321 | 3.89° C | 78% | 1011.5 hPa | 0 mm | - | 0 W/m² | - |
| 1778062019 | 3.89° C | 78% | 1011.4 hPa | 0 mm | - | 0 W/m² | - |
| 1778061717 | 3.89° C | 77% | 1011.6 hPa | 0 mm | - | 0 W/m² | - |
| 1778061415 | 4.44° C | 77% | 1011.4 hPa | 0 mm | - | 0 W/m² | - |
| 1778061112 | 4.44° C | 74% | 1011.4 hPa | 0 mm | - | 0 W/m² | - |
| 1778060809 | 5° C | 71% | 1011.3 hPa | 0 mm | - | 0 W/m² | - |
| 1778060507 | 5° C | 70% | 1011.3 hPa | 0 mm | - | 0 W/m² | - |
| 1778060205 | 5° C | 71% | 1011.2 hPa | 0 mm | - | 0 W/m² | - |
| 1778059902 | 5.56° C | 71% | 1011 hPa | 0 mm | - | 0 W/m² | - |
| 1778059600 | 5.56° C | 70% | 1011.1 hPa | 0 mm | - | 0 W/m² | - |
* Rain latest hour (hover to see other rain measurements)
** Current wind speed in m/s (hover to see current wind gust speed)